Погода в Кумылженской

Россия / Волгоградская область     49°52′53″N   42°35′25″E
темп.,
°C
ветер,
м/с
пор.,
м/с
влажн.,
%
обл.,
%
осадки,
мм/ч
давл.,
гПа
погр.,
м
13 апреля, вт
вт1300:00+13вюв61354100 0.0 1026270
03:00+10в41158100 0.0 1026202
06:00+10в5145589 0.0 1026266
09:00+15вюв71539100 0.0 1026614
12:00+20юв912280 0.0 10251230
15:00+21юв912260 0.0 10241998
18:00+18вюв612345 0.0 1023365
21:00+14в5144620 0.0 1024252
14 апреля, ср
ср1400:00+11в4125415 0.0 1023192
03:00+9в4106199 0.0 1022173
06:00+8в396586 0.0 1021156
09:00+14вюв584336 0.0 1021402
12:00+20вюв79285 0.0 10191267
15:00+21вюв792673 0.0 10172023
18:00+18вюв4941100 0.0 1017235
21:00+14вюв4114799 0.0 1017219
15 апреля, чт
чт1500:00+12в335038 0.0 101643
03:00+11вюв2353100 0.0 101626
06:00+11вюв2257100 0.0 101524
09:00+16ююв354682 0.0 1015436
12:00+20ююв583947 0.0 10151853
15:00+20ююз564041 0.0 10141939
18:00+19ю344772 0.0 101597
21:00+15юз225697 0.1 101514
16 апреля, пт
пт1600:00+13з2259100 0.3 101516
03:00+12зюз2260100 0.3 101511
06:00+11зсз226596 0.0 101528
09:00+16з33532 0.0 1016535
12:00+19зюз224196 0.0 10151844
15:00+20юз433911 0.0 10162146
18:00+18ююз3444100 0.0 1016121
21:00+15вюв11508 0.0 101611
17 апреля, сб
сб1700:00+14в2253100 0.0 101526
03:00+12ю4867100 0.0 1015294
06:00+10зюз3586100 0.1 1016244
09:00+12юз3373100 0.1 1017810
12:00+12з3371100 0.5 1018651
15:00+11з4476100 4.3 1019658
18:00+8з4788100 1.2 1020382
21:00+8з4787100 3.1 1021335